1998-067QS (44515 NORAD) Tracking and Keplerian Element Data

This shows tracking and keplerian element data for the satellite.

Feedback or suggestion? Click here.




ElementValue
Catalog44515
Name1998-067QS
Epoch Orbit13
Epoch Day240.60373123
Epoch Year2019
RAAN1.9894
Inclination51.6421
Eccentricity0.0010915
Argument of Perigee340.9511
Mean Anonmoly110.1949
Mean Motion15.64400512
Decay Rate0.07900568
L11 44515U 98067QS 19240.60373123 .07900568 00000-0 66719-1 0 9995
L22 44515 51.6421 1.9894 0010915 340.9511 110.1949 15.64400512 137

Live tracking and technical data element details for 1998-067QS (NORAD 44515). 1998-067QS can be tracked NOW for your location showing map with azimuth and elevation plus other details from your city location.

Track the satellite on the map from your city or location and see movement details for azimuth, elevation, latitude, longitude, range, height, and movement on the map or in text.







IsCatalogInMostPopularTable: catalog: 44515, numindb: 11
Update: records affected: 1



GetName: 44515 1998-067QS

Hit Count: updated at: Thu, 19 Sep 2019 16:41:50 GMT